FW1737 Weather Reports


time (UTC)temp
C
wind
direction
speed
KPH
gust
KPH
rain 1hr
cm
rain 24hr
cm
rain mn
cm
humidity
%
barometer
mb
20260508153058 13 147 6.4 16.1 0.00 2.29 0.03 74 1000.4
20260508151557 13 127 8.0 14.5 0.00 2.29 0.03 73 1000.4
20260508150056 13 128 3.2 14.5 0.00 2.29 0.03 74 1000.4
20260508144556 13 133 8.0 12.9 0.00 2.29 0.03 70 1000.6
20260508143104 14 88 8.0 16.1 0.00 2.29 0.03 65 1000.7
20260508141551 13 76 9.7 16.1 0.00 2.29 0.03 67 1000.8
20260508140059 13 69 4.8 16.1 0.00 2.29 0.03 68 1000.9
20260508134549 13 66 11.3 17.7 0.00 2.29 0.03 69 1001.2
20260508133046 13 32 4.8 14.5 0.00 2.29 0.03 73 1001.3
20260508131545 12 15 9.7 16.1 0.00 2.29 0.03 75 1001.2
20260508130041 12 82 9.7 16.1 0.00 2.29 0.03 80 1001.3
20260508124538 11 68 4.8 14.5 0.00 2.29 0.03 81 1001.3
20260508123137 11 36 6.4 14.5 0.00 2.29 0.03 84 1001.2
20260508121540 11 67 9.7 16.1 0.00 2.29 0.03 88 1001.2
20260508120038 11 51 1.6 8.0 0.00 2.29 0.03 92 1001.2
20260508114528 10 86 3.2 9.7 0.00 2.29 0.03 95 1001.5
20260508113026 10 348 0.0 4.8 0.00 2.29 0.03 100 1001.5
20260508111529 9 5 0.0 4.8 0.03 2.29 0.03 100 1001.5
20260508110023 8 355 0.0 4.8 0.03 2.29 0.03 100 1001.5
20260508104523 7 225 0.0 1.6 0.03 2.29 0.03 100 1001.5
20260508103025 6 225 0.0 0.0 0.03 2.29 0.03 100 1001.8
20260508101522 5 225 0.0 0.0 0.00 2.26 0.00 100 1001.7
20260508100022 5 225 0.0 0.0 0.00 2.26 0.00 100 1001.4
20260508094520 5 225 0.0 4.8 0.00 2.26 0.00 100 1001.6
20260508093019 5 224 0.0 3.2 0.00 2.26 0.00 100 1001.3
20260508091521 5 224 0.0 3.2 0.00 2.26 0.00 100 1001.2
20260508090014 5 228 0.0 4.8 0.00 2.26 0.00 100 1000.9
20260508084514 5 228 3.2 4.8 0.00 2.26 0.00 100 1001.2
20260508083012 5 228 3.2 6.4 0.00 2.26 0.00 100 1001.3
20260508081510 5 215 1.6 4.8 0.00 2.26 0.00 100 1001.0
20260508080008 6 215 0.0 4.8 0.00 2.26 0.00 100 1000.9
20260508074507 6 215 0.0 4.8 0.00 2.26 0.00 100 1000.7
20260508073002 6 215 0.0 3.2 0.00 2.26 0.00 100 1000.7
20260508071602 6 216 3.2 6.4 0.00 2.26 0.00 100 1001.0
20260508070100 6 215 1.6 4.8 0.00 2.26 0.00 100 1001.0
20260508064558 7 215 0.0 6.4 0.00 2.26 0.00 100 1000.8
20260508063102 7 213 3.2 6.4 0.00 2.26 0.00 100 1001.1
20260508061559 7 213 3.2 4.8 0.00 2.26 0.00 100 1000.9
20260508060053 7 213 0.0 4.8 0.00 2.26 0.00 100 1001.1
20260508054551 7 213 3.2 4.8 0.00 2.26 0.00 100 1001.2
20260508053059 8 212 1.6 4.8 0.00 2.26 0.00 100 1001.2
20260508051550 8 209 0.0 4.8 0.00 2.26 0.00 100 1001.1
20260508050044 8 209 0.0 1.6 0.00 2.26 0.00 100 1001.0
20260508044544 8 209 0.0 1.6 0.00 2.26 0.00 100 1000.9
20260508043049 8 209 1.6 3.2 0.00 2.26 0.00 100 1000.8
20260508041541 8 209 0.0 3.2 0.00 2.26 0.00 100 1001.1
20260508040038 9 209 3.2 6.4 0.00 2.26 0.00 100 1001.3
20260508034539 9 209 1.6 4.8 0.00 2.26 0.00 100 1001.3
20260508033034 10 194 3.2 6.4 0.00 2.26 0.00 100 1001.6
20260508031531 10 194 0.0 3.2 0.00 2.26 0.00 100 1001.6
20260508030029 10 194 0.0 3.2 0.00 2.26 0.00 100 1001.3
20260508024528 10 190 1.6 4.8 0.00 2.26 2.26 100 1001.5
20260508023027 10 146 3.2 6.4 0.00 2.26 2.26 100 1001.5
20260508021528 10 101 0.0 0.0 0.00 2.26 2.26 100 1001.9
20260508020035 10 101 0.0 6.4 0.00 2.26 2.26 100 1001.6
20260508014527 10 304 0.0 8.0 0.00 2.26 2.26 100 1001.8
20260508013026 10 313 0.0 3.2 0.00 2.26 2.26 100 1001.8
20260508011526 11 313 0.0 4.8 0.00 2.26 2.26 100 1001.6
20260508010029 11 329 1.6 6.4 0.00 2.26 2.26 100 1001.3
20260508004525 11 148 3.2 4.8 0.00 2.26 2.26 100 1001.4
20260508003024 11 148 0.0 3.2 0.00 2.26 2.26 100 1001.4
20260508001524 11 148 0.0 0.0 0.00 2.26 2.26 100 1001.5
20260508000023 11 148 0.0 4.8 0.00 2.26 2.26 100 1001.4
20260507234531 11 279 1.6 3.2 0.00 2.26 2.26 100 1001.4
20260507233022 11 279 1.6 4.8 0.00 2.26 2.26 100 1001.6
20260507231521 11 279 0.0 0.0 0.00 2.26 2.26 100 1001.6
20260507230020 11 279 0.0 6.4 0.00 2.26 2.26 100 1001.7
20260507224525 11 284 0.0 6.4 0.00 2.26 2.26 100 1001.5
20260507223020 11 180 3.2 4.8 0.00 2.26 2.26 99 1001.5
20260507221520 11 149 3.2 8.0 0.00 2.26 2.26 99 1001.3
20260507220019 11 206 3.2 14.5 0.00 2.26 2.26 99 1001.6
20260507214523 11 124 3.2 14.5 0.00 2.26 2.26 99 1001.5
20260507213019 11 211 6.4 11.3 0.00 2.26 2.26 99 1001.6
20260507211517 11 204 9.7 17.7 0.00 2.26 2.26 99 1001.8
20260507210017 12 244 6.4 11.3 0.03 2.26 2.26 99 1001.9
20260507204516 11 180 1.6 12.9 0.05 2.26 2.26 100 1001.2
20260507203016 11 126 4.8 11.3 0.13 2.26 2.26 100 1000.8
20260507201513 11 102 3.2 8.0 0.20 2.26 2.26 99 1001.1
20260507200013 11 96 4.8 12.9 0.30 2.24 2.24 100 1001.2
20260507194511 11 88 0.0 4.8 0.48 2.21 2.21 100 1002.2
20260507193008 11 83 3.2 8.0 0.61 2.13 2.13 100 1002.0
20260507191506 11 96 1.6 8.0 0.69 2.06 2.06 100 1002.5
20260507190003 11 223 4.8 11.3 0.79 1.91 1.91 100 1003.2
20260507184501 11 213 4.8 12.9 0.89 1.73 1.73 99 1003.4
20260507183100 11 211 6.4 16.1 1.22 1.52 1.52 99 1003.9
20260507181558 11 183 4.8 14.5 1.27 1.37 1.37 99 1004.0
20260507180057 11 203 3.2 8.0 1.09 1.14 1.14 99 1004.4
20260507174606 11 200 11.3 17.7 0.86 0.86 0.86 98 1004.7
20260507173055 11 173 9.7 25.7 0.30 0.30 0.30 98 1004.7
20260507171603 11 183 14.5 27.4 0.10 0.10 0.10 98 1003.9
20260507170053 11 193 12.9 27.4 0.05 0.05 0.05 98 1004.0
20260507164550 11 184 11.3 24.1 0.00 0.00 0.00 98 1004.5
20260507163048 11 175 12.9 20.9 0.00 0.00 0.00 97 1004.8
20260507161545 11 190 16.1 32.2 0.00 0.00 0.00 95 1005.5
20260507160046 12 170 12.9 35.4 0.00 0.00 0.00 95 1005.6
20260507154540 12 163 12.9 33.8 0.00 0.00 0.00 95 1006.2